When you browse on this site, cookies collect data to enhance your experience and personalize the content and advertising you see.
Visit our Privacy Policy to learn more. By continuing to use the site, you agree to this use of cookies and data.
  • In Lithuania
  • List of Countries
  • For 7 days
  • Water Temperature
  • Satellite Maps
  • Weather Map
  • Weather Widgets
  • user-avatar
    Login

    Hourly Weather Ioannina

    Today, 15 December, Saturday

    Time Temperature Precipitation Wind Pressure Humidity
    00:00 +5°C° 0 mm 2 mps 684 mmHg 90%
    01:00 +5°C° 0 mm 2 mps 684 mmHg 88%
    02:00 +5°C° 0.1 mm 2 mps 684 mmHg 88%
    03:00 +5°C° 0.1 mm 2 mps 684 mmHg 88%
    04:00 +5°C° 0.1 mm 2 mps 684 mmHg 88%
    05:00 +5°C° 0.2 mm 2 mps 684 mmHg 88%
    06:00 +5°C° 0.2 mm 2 mps 684 mmHg 88%
    07:00 +5°C° 0.2 mm 2 mps 684 mmHg 88%
    08:00 +6°C° 0.2 mm 2 mps 684 mmHg 86%
    09:00 +7°C° 0.2 mm 2 mps 684 mmHg 84%
    10:00 +8°C° 0.2 mm 2 mps 684 mmHg 82%
    11:00 +8°C° 0.1 mm 2 mps 684 mmHg 79%
    12:00 +9°C° 0.1 mm 2 mps 684 mmHg 75%
    13:00 +10°C° 0.1 mm 2 mps 684 mmHg 71%
    14:00 +9°C° 0.1 mm 2 mps 683 mmHg 75%
    15:00 +8°C° 0.1 mm 2 mps 683 mmHg 79%
    16:00 +7°C° 0.1 mm 2 mps 683 mmHg 83%
    17:00 +7°C° 0 mm 2 mps 682 mmHg 84%
    18:00 +6°C° 0 mm 2 mps 682 mmHg 84%
    19:00 +6°C° 0 mm 2 mps 682 mmHg 85%
    20:00 +6°C° 0 mm 2 mps 682 mmHg 86%
    21:00 +6°C° 0 mm 1 mps 682 mmHg 86%
    22:00 +6°C° 0 mm 1 mps 682 mmHg 86%
    23:00 +6°C° 0.2 mm 1 mps 683 mmHg 85%

    Tomorrow, 16 December, Sunday

    Time Temperature Precipitation Wind Pressure Humidity
    00:00 +6°C° 0.2 mm 1 mps 683 mmHg 85%
    01:00 +6°C° 0.2 mm 1 mps 683 mmHg 84%
    02:00 +6°C° 0.2 mm 1 mps 683 mmHg 84%
    03:00 +6°C° 0.2 mm 1 mps 683 mmHg 84%
    04:00 +5°C° 0.2 mm 2 mps 683 mmHg 83%
    05:00 +4°C° 0 mm 2 mps 683 mmHg 84%
    06:00 +4°C° 0 mm 2 mps 683 mmHg 84%
    07:00 +4°C° 0 mm 2 mps 683 mmHg 85%
    08:00 +5°C° 0 mm 2 mps 684 mmHg 81%
    09:00 +7°C° 0 mm 2 mps 684 mmHg 77%
    10:00 +8°C° 0 mm 2 mps 685 mmHg 73%
    11:00 +8°C° 0 mm 2 mps 685 mmHg 71%
    12:00 +9°C° 0 mm 2 mps 685 mmHg 70%
    13:00 +9°C° 0 mm 3 mps 685 mmHg 68%
    14:00 +8°C° 0 mm 3 mps 685 mmHg 71%
    15:00 +7°C° 0 mm 2 mps 685 mmHg 74%
    16:00 +6°C° 0 mm 2 mps 685 mmHg 77%
    17:00 +5°C° 0 mm 2 mps 685 mmHg 79%
    18:00 +4°C° 0 mm 2 mps 685 mmHg 80%
    19:00 +3°C° 0 mm 2 mps 686 mmHg 81%
    20:00 +3°C° 0 mm 2 mps 686 mmHg 80%
    21:00 +3°C° 0 mm 2 mps 686 mmHg 78%
    22:00 +3°C° 0 mm 1 mps 686 mmHg 77%
    23:00 +3°C° 0 mm 1 mps 686 mmHg 75%

    Day after tomorrow, 17 December, Monday

    Time Temperature Precipitation Wind Pressure Humidity
    00:00 +3°C° 0 mm 1 mps 686 mmHg 73%
    01:00 +3°C° 0 mm 1 mps 686 mmHg 72%
    02:00 +3°C° 0 mm 1 mps 686 mmHg 70%
    03:00 +3°C° 0 mm 1 mps 686 mmHg 68%
    04:00 +4°C° 0 mm 1 mps 686 mmHg 66%
    05:00 +4°C° 0 mm 1 mps 686 mmHg 66%
    06:00 +4°C° 0 mm 1 mps 686 mmHg 66%
    07:00 +4°C° 0 mm 1 mps 686 mmHg 65%
    08:00 +5°C° 0 mm 1 mps 687 mmHg 61%
    09:00 +6°C° 0 mm 1 mps 687 mmHg 56%
    10:00 +7°C° 0 mm 1 mps 687 mmHg 51%
    11:00 +7°C° 0.1 mm 2 mps 686 mmHg 53%
    12:00 +7°C° 0.1 mm 2 mps 686 mmHg 55%
    13:00 +7°C° 0.1 mm 2 mps 686 mmHg 57%
    14:00 +7°C° 0.1 mm 2 mps 685 mmHg 64%
    15:00 +6°C° 0.1 mm 2 mps 685 mmHg 71%
    16:00 +5°C° 0.1 mm 2 mps 685 mmHg 78%
    17:00 +5°C° 0.5 mm 2 mps 684 mmHg 81%
    18:00 +5°C° 0.5 mm 2 mps 684 mmHg 83%
    19:00 +4°C° 0.5 mm 3 mps 684 mmHg 86%
    20:00 +4°C° 1.3 mm 3 mps 684 mmHg 88%
    21:00 +4°C° 1.3 mm 3 mps 683 mmHg 89%
    22:00 +4°C° 1.3 mm 3 mps 683 mmHg 91%
    23:00 +4°C° 0.8 mm 3 mps 683 mmHg 92%

    18 December, Tuesday

    Time Temperature Precipitation Wind Pressure Humidity
    00:00 +5°C° 0.8 mm 2 mps 683 mmHg 92%
    01:00 +5°C° 0.8 mm 2 mps 682 mmHg 93%
    02:00 +5°C° 0.8 mm 2 mps 682 mmHg 94%
    03:00 +4°C° 0.8 mm 2 mps 682 mmHg 94%
    04:00 +4°C° 0.8 mm 2 mps 682 mmHg 94%
    05:00 +4°C° 0.8 mm 2 mps 682 mmHg 93%
    06:00 +4°C° 0.8 mm 2 mps 682 mmHg 92%
    07:00 +4°C° 0.8 mm 2 mps 683 mmHg 92%
    08:00 +4°C° 0.6 mm 2 mps 683 mmHg 90%
    09:00 +4°C° 0.6 mm 2 mps 684 mmHg 88%
    10:00 +4°C° 0.6 mm 2 mps 684 mmHg 86%
    11:00 +5°C° 0.3 mm 2 mps 684 mmHg 84%
    12:00 +5°C° 0.3 mm 2 mps 684 mmHg 83%
    13:00 +5°C° 0.3 mm 2 mps 684 mmHg 82%
    14:00 +5°C° 0.1 mm 2 mps 685 mmHg 83%
    15:00 +4°C° 0.1 mm 2 mps 685 mmHg 84%
    16:00 +4°C° 0.1 mm 2 mps 685 mmHg 84%
    17:00 +3°C° 0 mm 2 mps 685 mmHg 85%
    18:00 +3°C° 0 mm 2 mps 686 mmHg 85%
    19:00 +2°C° 0 mm 2 mps 686 mmHg 85%
    20:00 +2°C° 0 mm 2 mps 686 mmHg 85%
    21:00 +1°C° 0 mm 2 mps 687 mmHg 84%
    22:00 +1°C° 0 mm 2 mps 687 mmHg 84%
    23:00 +1°C° 0 mm 2 mps 687 mmHg 83%

    19 December, Wednesday

    Time Temperature Precipitation Wind Pressure Humidity
    00:00 +1°C° 0 mm 2 mps 687 mmHg 83%
    01:00 -1°C° 0 mm 2 mps 687 mmHg 82%
    02:00 -1°C° 0 mm 2 mps 687 mmHg 82%
    03:00 -1°C° 0 mm 2 mps 687 mmHg 81%
    04:00 -1°C° 0 mm 2 mps 687 mmHg 81%
    05:00 +1°C° 0 mm 1 mps 687 mmHg 81%
    06:00 +1°C° 0 mm 1 mps 688 mmHg 80%
    07:00 +1°C° 0 mm 1 mps 688 mmHg 80%
    08:00 +3°C° 0 mm 1 mps 689 mmHg 75%
    09:00 +5°C° 0 mm 1 mps 689 mmHg 70%
    10:00 +7°C° 0 mm 1 mps 690 mmHg 65%
    11:00 +8°C° 0 mm 1 mps 690 mmHg 62%
    12:00 +8°C° 0 mm 1 mps 689 mmHg 59%
    13:00 +8°C° 0 mm 2 mps 689 mmHg 56%
    14:00 +6°C° 0 mm 2 mps 689 mmHg 61%
    15:00 +5°C° 0 mm 2 mps 689 mmHg 65%
    16:00 +5°C° 0 mm 1 mps 689 mmHg 70%
    17:00 +4°C° 0 mm 1 mps 689 mmHg 71%
    18:00 +3°C° 0 mm 1 mps 689 mmHg 71%
    19:00 +2°C° 0 mm 1 mps 689 mmHg 72%
    20:00 +2°C° 0 mm 1 mps 689 mmHg 71%
    21:00 +2°C° 0 mm 1 mps 689 mmHg 70%
    22:00 +2°C° 0 mm 1 mps 689 mmHg 70%
    23:00 +2°C° 0 mm 1 mps 689 mmHg 68%

    20 December, Thursday

    Time Temperature Precipitation Wind Pressure Humidity
    00:00 +2°C° 0 mm 1 mps 689 mmHg 66%
    01:00 +2°C° 0 mm 1 mps 689 mmHg 65%
    02:00 +2°C° 0 mm 1 mps 689 mmHg 63%
    03:00 +2°C° 0 mm 1 mps 689 mmHg 62%
    04:00 +1°C° 0 mm 1 mps 689 mmHg 60%
    05:00 +1°C° 0 mm 1 mps 689 mmHg 59%
    06:00 +1°C° 0 mm 1 mps 690 mmHg 58%
    07:00 +1°C° 0 mm 1 mps 690 mmHg 58%
    08:00 +2°C° 0 mm 2 mps 690 mmHg 56%
    09:00 +4°C° 0 mm 2 mps 691 mmHg 54%
    10:00 +6°C° 0 mm 2 mps 691 mmHg 52%
    11:00 +6°C° 0 mm 2 mps 691 mmHg 55%
    12:00 +7°C° 0 mm 2 mps 691 mmHg 59%
    13:00 +8°C° 0 mm 2 mps 690 mmHg 62%
    14:00 +7°C° 0 mm 2 mps 690 mmHg 68%
    15:00 +6°C° 0 mm 2 mps 690 mmHg 74%
    16:00 +5°C° 0 mm 2 mps 690 mmHg 80%
    17:00 +4°C° 0.4 mm 2 mps 690 mmHg 82%
    18:00 +4°C° 0.4 mm 2 mps 690 mmHg 83%
    19:00 +4°C° 0.4 mm 2 mps 690 mmHg 85%
    20:00 +4°C° 1.3 mm 2 mps 690 mmHg 88%
    21:00 +4°C° 1.3 mm 2 mps 689 mmHg 90%
    22:00 +4°C° 1.3 mm 2 mps 689 mmHg 92%
    23:00 +4°C° 1.5 mm 2 mps 689 mmHg 93%
    Show more